owner,sensor,date,latitude,longitude,air_temperature,qcFlag 
TABS,ioos:station:wmo:42047:1,2009-07-15T15:25:00Z,27.8966,-93.5973,0.0,11144222 
TABS,ioos:station:wmo:42047:1,2009-07-15T16:00:00Z,27.8966,-93.5973,-5.0,11144222 
TABS,ioos:station:wmo:42047:1,2009-07-15T16:10:00Z,27.8966,-93.5973,0.0,11144222 
TABS,ioos:station:wmo:42047:1,2009-07-15T17:00:00Z,27.8966,-93.5973,58.8,11144222 
TABS,ioos:station:wmo:42047:1,2009-07-15T17:30:00Z,27.8966,-93.5973,60.0,11144222 
TABS,ioos:station:wmo:42047:1,2009-07-15T17:45:00Z,27.8966,-93.5973,0.0,11144222 
TABS,ioos:station:wmo:42047:1,2009-07-15T18:00:00Z,27.8966,-93.5973,62.6,11144222 
TABS,ioos:station:wmo:42047:1,2009-07-15T18:30:00Z,27.8966,-93.5973,62.8,11144222 
TABS,ioos:station:wmo:42047:1,2009-07-15T19:00:00Z,27.8966,-93.5973,63.6,11144222 
TABS,ioos:station:wmo:42047:1,2009-07-15T19:30:00Z,27.8966,-93.5973,58.1,11144222 
TABS,ioos:station:wmo:42047:1,2009-07-15T20:00:00Z,27.8966,-93.5973,37.1,11144222 
TABS,ioos:station:wmo:42047:1,2009-07-15T20:30:00Z,27.8966,-93.5973,37.5,11144222 
TABS,ioos:station:wmo:42047:1,2009-07-15T21:00:00Z,27.8966,-93.5973,38.5,11144222 
TABS,ioos:station:wmo:42047:1,2009-07-15T21:30:00Z,27.8966,-93.5973,38.6,11144222 
TABS,ioos:station:wmo:42047:1,2009-07-15T22:00:00Z,27.8966,-93.5973,39.1,11144222 
TABS,ioos:station:wmo:42047:1,2009-07-15T22:30:00Z,27.8966,-93.5973,38.1,11144222 
TABS,ioos:station:wmo:42047:1,2009-07-15T23:00:00Z,27.8966,-93.5973,38.1,11144222 
TABS,ioos:station:wmo:42047:1,2009-07-15T23:30:00Z,27.8966,-93.5973,38.2,11144222 
TABS,ioos:station:wmo:42047:1,2009-07-16T00:00:00Z,27.8966,-93.5973,37.8,11144222 
TABS,ioos:station:wmo:42047:1,2009-07-16T00:30:00Z,27.8966,-93.5973,35.3,11144222 
TABS,ioos:station:wmo:42047:1,2009-07-16T01:00:00Z,27.8966,-93.5973,34.9,11144222 
TABS,ioos:station:wmo:42047:1,2009-07-16T01:30:00Z,27.8966,-93.5973,33.9,11144222 
TABS,ioos:station:wmo:42047:1,2009-07-16T02:00:00Z,27.8966,-93.5973,33.3,11144222 
TABS,ioos:station:wmo:42047:1,2009-07-16T02:30:00Z,27.8966,-93.5973,32.5,11144222 
TABS,ioos:station:wmo:42047:1,2009-07-16T03:00:00Z,27.8966,-93.5973,32.0,11144222 
TABS,ioos:station:wmo:42047:1,2009-07-16T03:30:00Z,27.8966,-93.5973,31.2,11144222 
TABS,ioos:station:wmo:42047:1,2009-07-16T04:00:00Z,27.8966,-93.5973,30.5,11144222 
TABS,ioos:station:wmo:42047:1,2009-07-16T04:30:00Z,27.8966,-93.5973,29.9,11144222 
TABS,ioos:station:wmo:42047:1,2009-07-16T05:00:00Z,27.8966,-93.5973,29.3,11144222 
TABS,ioos:station:wmo:42047:1,2009-07-16T05:30:00Z,27.8966,-93.5973,28.3,11144222 
TABS,ioos:station:wmo:42047:1,2009-07-16T06:00:00Z,27.8966,-93.5973,28.2,11144222 
TABS,ioos:station:wmo:42047:1,2009-07-16T06:30:00Z,27.8966,-93.5973,27.5,11144222 
TABS,ioos:station:wmo:42047:1,2009-07-16T07:00:00Z,27.8966,-93.5973,27.3,11144222 
TABS,ioos:station:wmo:42047:1,2009-07-16T07:30:00Z,27.8966,-93.5973,26.7,11144222 
TABS,ioos:station:wmo:42047:1,2009-07-16T08:00:00Z,27.8966,-93.5973,26.5,11144222 
TABS,ioos:station:wmo:42047:1,2009-07-16T08:30:00Z,27.8966,-93.5973,26.1,11144222 
TABS,ioos:station:wmo:42047:1,2009-07-16T09:00:00Z,27.8966,-93.5973,25.9,11144222 
TABS,ioos:station:wmo:42047:1,2009-07-16T09:30:00Z,27.8966,-93.5973,25.5,11144222 
TABS,ioos:station:wmo:42047:1,2009-07-16T10:00:00Z,27.8966,-93.5973,25.5,11144222 
TABS,ioos:station:wmo:42047:1,2009-07-16T10:30:00Z,27.8966,-93.5973,25.3,11144222 
TABS,ioos:station:wmo:42047:1,2009-07-16T11:00:00Z,27.8966,-93.5973,25.0,11144222 
TABS,ioos:station:wmo:42047:1,2009-07-16T11:30:00Z,27.8966,-93.5973,24.7,11144222 
TABS,ioos:station:wmo:42047:1,2009-07-16T12:00:00Z,27.8966,-93.5973,25.2,11144222 
TABS,ioos:station:wmo:42047:1,2009-07-16T12:30:00Z,27.8966,-93.5973,25.3,11144222 
TABS,ioos:station:wmo:42047:1,2009-07-16T13:00:00Z,27.8966,-93.5973,25.8,11144222 
TABS,ioos:station:wmo:42047:1,2009-07-16T13:30:00Z,27.8966,-93.5973,26.9,11144222 
TABS,ioos:station:wmo:42047:1,2009-07-16T14:00:00Z,27.8966,-93.5973,27.9,11144222 
TABS,ioos:station:wmo:42047:1,2009-07-16T14:30:00Z,27.8966,-93.5973,28.1,11144222 
TABS,ioos:station:wmo:42047:1,2009-07-16T15:00:00Z,27.8966,-93.5973,30.2,11144222 
TABS,ioos:station:wmo:42047:1,2009-07-16T15:30:00Z,27.8966,-93.5973,29.9,11144222 
TABS,ioos:station:wmo:42047:1,2009-07-16T16:00:00Z,27.8966,-93.5973,31.2,11144222 
TABS,ioos:station:wmo:42047:1,2009-07-16T16:30:00Z,27.8966,-93.5973,32.0,11144222 
TABS,ioos:station:wmo:42047:1,2009-07-16T17:00:00Z,27.8966,-93.5973,33.1,11144222 
TABS,ioos:station:wmo:42047:1,2009-07-16T17:30:00Z,27.8966,-93.5973,34.1,11144222 
TABS,ioos:station:wmo:42047:1,2009-07-16T18:00:00Z,27.8966,-93.5973,34.2,11144222 
TABS,ioos:station:wmo:42047:1,2009-07-16T18:30:00Z,27.8966,-93.5973,35.0,11144222 
TABS,ioos:station:wmo:42047:1,2009-07-16T19:00:00Z,27.8966,-93.5973,35.0,11144222 
TABS,ioos:station:wmo:42047:1,2009-07-16T19:30:00Z,27.8966,-93.5973,35.6,11144222 
TABS,ioos:station:wmo:42047:1,2009-07-16T20:00:00Z,27.8966,-93.5973,35.5,11144222 
TABS,ioos:station:wmo:42047:1,2009-07-16T20:30:00Z,27.8966,-93.5973,36.6,11144222 
TABS,ioos:station:wmo:42047:1,2009-07-16T21:00:00Z,27.8966,-93.5973,36.4,11144222 
TABS,ioos:station:wmo:42047:1,2009-07-16T21:30:00Z,27.8966,-93.5973,38.0,11144222 
TABS,ioos:station:wmo:42047:1,2009-07-16T22:00:00Z,27.8966,-93.5973,38.3,11144222 
TABS,ioos:station:wmo:42047:1,2009-07-16T22:30:00Z,27.8966,-93.5973,37.4,11144222 
TABS,ioos:station:wmo:42047:1,2009-07-16T23:00:00Z,27.8966,-93.5973,38.3,11144222 
TABS,ioos:station:wmo:42047:1,2009-07-16T23:30:00Z,27.8966,-93.5973,38.4,11144222 
TABS,ioos:station:wmo:42047:1,2009-07-17T00:00:00Z,27.8966,-93.5973,37.8,11144222 
TABS,ioos:station:wmo:42047:1,2009-07-17T00:30:00Z,27.8966,-93.5973,35.5,11144222 
TABS,ioos:station:wmo:42047:1,2009-07-17T01:00:00Z,27.8966,-93.5973,34.5,11144222 
TABS,ioos:station:wmo:42047:1,2009-07-17T01:30:00Z,27.8966,-93.5973,33.1,11144222 
TABS,ioos:station:wmo:42047:1,2009-07-17T02:00:00Z,27.8966,-93.5973,32.5,11144222 
TABS,ioos:station:wmo:42047:1,2009-07-17T02:30:00Z,27.8966,-93.5973,31.6,11144222 
TABS,ioos:station:wmo:42047:1,2009-07-17T03:00:00Z,27.8966,-93.5973,31.0,11144222 
TABS,ioos:station:wmo:42047:1,2009-07-17T03:30:00Z,27.8966,-93.5973,30.1,11144222 
TABS,ioos:station:wmo:42047:1,2009-07-17T04:00:00Z,27.8966,-93.5973,29.7,11144222 
TABS,ioos:station:wmo:42047:1,2009-07-17T04:30:00Z,27.8966,-93.5973,29.0,11144222 
TABS,ioos:station:wmo:42047:1,2009-07-17T05:00:00Z,27.8966,-93.5973,28.6,11144222 
TABS,ioos:station:wmo:42047:1,2009-07-17T05:30:00Z,27.8966,-93.5973,28.0,11144222 
TABS,ioos:station:wmo:42047:1,2009-07-17T06:00:00Z,27.8966,-93.5973,27.7,11144222 
TABS,ioos:station:wmo:42047:1,2009-07-17T06:30:00Z,27.8966,-93.5973,27.1,11144222 
TABS,ioos:station:wmo:42047:1,2009-07-17T07:00:00Z,27.8966,-93.5973,26.8,11144222 
TABS,ioos:station:wmo:42047:1,2009-07-17T07:30:00Z,27.8966,-93.5973,26.4,11144222 
TABS,ioos:station:wmo:42047:1,2009-07-17T08:00:00Z,27.8966,-93.5973,26.2,11144222 
TABS,ioos:station:wmo:42047:1,2009-07-17T08:30:00Z,27.8966,-93.5973,25.8,11144222 
TABS,ioos:station:wmo:42047:1,2009-07-17T09:00:00Z,27.8966,-93.5973,25.9,11144222 
TABS,ioos:station:wmo:42047:1,2009-07-17T09:30:00Z,27.8966,-93.5973,25.6,11144222 
TABS,ioos:station:wmo:42047:1,2009-07-17T10:00:00Z,27.8966,-93.5973,25.4,11144222 
TABS,ioos:station:wmo:42047:1,2009-07-17T10:30:00Z,27.8966,-93.5973,24.8,11144222 
TABS,ioos:station:wmo:42047:1,2009-07-17T11:00:00Z,27.8966,-93.5973,24.7,11144222 
TABS,ioos:station:wmo:42047:1,2009-07-17T11:30:00Z,27.8966,-93.5973,24.5,11144222 
TABS,ioos:station:wmo:42047:1,2009-07-17T12:00:00Z,27.8966,-93.5973,24.5,11144222 
TABS,ioos:station:wmo:42047:1,2009-07-17T12:30:00Z,27.8966,-93.5973,24.7,11144222 
TABS,ioos:station:wmo:42047:1,2009-07-17T12:50:00Z,27.8966,-93.5973,0.0,11144222 
TABS,ioos:station:wmo:42047:1,2009-07-17T13:00:00Z,27.8966,-93.5973,24.9,11144222 
TABS,ioos:station:wmo:42047:1,2009-07-17T13:30:00Z,27.8966,-93.5973,24.8,11144222 
TABS,ioos:station:wmo:42047:1,2009-07-17T14:00:00Z,27.8966,-93.5973,25.5,11144222 
TABS,ioos:station:wmo:42047:1,2009-07-17T14:30:00Z,27.8966,-93.5973,24.2,11144222 
TABS,ioos:station:wmo:42047:1,2009-07-17T15:00:00Z,27.8966,-93.5973,22.3,11144222 
TABS,ioos:station:wmo:42047:1,2009-07-17T15:30:00Z,27.8966,-93.5973,21.3,11144222 
TABS,ioos:station:wmo:42047:1,2009-07-17T16:00:00Z,27.8966,-93.5973,21.7,11144222 
TABS,ioos:station:wmo:42047:1,2009-07-17T16:30:00Z,27.8966,-93.5973,22.3,11144222 
TABS,ioos:station:wmo:42047:1,2009-07-17T17:00:00Z,27.8966,-93.5973,22.8,11144222 
TABS,ioos:station:wmo:42047:1,2009-07-17T17:30:00Z,27.8966,-93.5973,24.8,11144222 
TABS,ioos:station:wmo:42047:1,2009-07-17T18:00:00Z,27.8966,-93.5973,27.3,11144222 
TABS,ioos:station:wmo:42047:1,2009-07-17T18:30:00Z,27.8966,-93.5973,28.2,11144222 
TABS,ioos:station:wmo:42047:1,2009-07-17T19:00:00Z,27.8966,-93.5973,29.3,11144222 
TABS,ioos:station:wmo:42047:1,2009-07-17T19:30:00Z,27.8966,-93.5973,30.4,11144222 
TABS,ioos:station:wmo:42047:1,2009-07-17T20:00:00Z,27.8966,-93.5973,31.4,11144222 
TABS,ioos:station:wmo:42047:1,2009-07-17T20:30:00Z,27.8966,-93.5973,32.2,11144222 
TABS,ioos:station:wmo:42047:1,2009-07-17T21:00:00Z,27.8966,-93.5973,33.2,11144222 
TABS,ioos:station:wmo:42047:1,2009-07-17T21:30:00Z,27.8966,-93.5973,33.8,11144222 
TABS,ioos:station:wmo:42047:1,2009-07-17T22:00:00Z,27.8966,-93.5973,34.9,11144222 
TABS,ioos:station:wmo:42047:1,2009-07-17T22:30:00Z,27.8966,-93.5973,36.0,11144222 
TABS,ioos:station:wmo:42047:1,2009-07-17T23:00:00Z,27.8966,-93.5973,35.6,11144222 
TABS,ioos:station:wmo:42047:1,2009-07-17T23:30:00Z,27.8966,-93.5973,35.4,11144222 
TABS,ioos:station:wmo:42047:1,2009-07-18T00:00:00Z,27.8966,-93.5973,34.5,11144222 
TABS,ioos:station:wmo:42047:1,2009-07-18T00:30:00Z,27.8966,-93.5973,34.1,11144222 
TABS,ioos:station:wmo:42047:1,2009-07-18T01:00:00Z,27.8966,-93.5973,33.0,11144222 
TABS,ioos:station:wmo:42047:1,2009-07-18T01:30:00Z,27.8966,-93.5973,31.6,11144222 
TABS,ioos:station:wmo:42047:1,2009-07-18T02:00:00Z,27.8966,-93.5973,30.5,11144222 
TABS,ioos:station:wmo:42047:1,2009-07-18T02:30:00Z,27.8966,-93.5973,29.4,11144222 
TABS,ioos:station:wmo:42047:1,2009-07-18T03:00:00Z,27.8966,-93.5973,28.8,11144222 
TABS,ioos:station:wmo:42047:1,2009-07-18T03:30:00Z,27.8966,-93.5973,28.2,11144222 
TABS,ioos:station:wmo:42047:1,2009-07-18T04:00:00Z,27.8966,-93.5973,27.9,11144222 
TABS,ioos:station:wmo:42047:1,2009-07-18T04:30:00Z,27.8966,-93.5973,27.3,11144222 
TABS,ioos:station:wmo:42047:1,2009-07-18T05:00:00Z,27.8966,-93.5973,26.9,11144222 
TABS,ioos:station:wmo:42047:1,2009-07-18T05:30:00Z,27.8966,-93.5973,25.9,11144222 
TABS,ioos:station:wmo:42047:1,2009-07-18T06:00:00Z,27.8966,-93.5973,25.7,11144222 
TABS,ioos:station:wmo:42047:1,2009-07-18T06:30:00Z,27.8966,-93.5973,24.8,11144222 
TABS,ioos:station:wmo:42047:1,2009-07-18T07:00:00Z,27.8966,-93.5973,24.4,11144222 
TABS,ioos:station:wmo:42047:1,2009-07-18T07:30:00Z,27.8966,-93.5973,24.4,11144222 
TABS,ioos:station:wmo:42047:1,2009-07-18T08:00:00Z,27.8966,-93.5973,24.4,11144222 
TABS,ioos:station:wmo:42047:1,2009-07-18T08:30:00Z,27.8966,-93.5973,24.0,11144222 
TABS,ioos:station:wmo:42047:1,2009-07-18T09:00:00Z,27.8966,-93.5973,23.9,11144222 
TABS,ioos:station:wmo:42047:1,2009-07-18T09:30:00Z,27.8966,-93.5973,23.4,11144222 
TABS,ioos:station:wmo:42047:1,2009-07-18T10:00:00Z,27.8966,-93.5973,23.1,11144222 
TABS,ioos:station:wmo:42047:1,2009-07-18T10:30:00Z,27.8966,-93.5973,22.9,11144222 
TABS,ioos:station:wmo:42047:1,2009-07-18T11:00:00Z,27.8966,-93.5973,22.6,11144222 
TABS,ioos:station:wmo:42047:1,2009-07-18T11:30:00Z,27.8966,-93.5973,22.8,11144222 
TABS,ioos:station:wmo:42047:1,2009-07-18T12:00:00Z,27.8966,-93.5973,23.4,11144222 
TABS,ioos:station:wmo:42047:1,2009-07-18T12:30:00Z,27.8966,-93.5973,23.8,11144222 
TABS,ioos:station:wmo:42047:1,2009-07-18T13:00:00Z,27.8966,-93.5973,25.0,11144222 
TABS,ioos:station:wmo:42047:1,2009-07-18T13:30:00Z,27.8966,-93.5973,26.3,11144222 
TABS,ioos:station:wmo:42047:1,2009-07-18T14:00:00Z,27.8966,-93.5973,27.6,11144222 
TABS,ioos:station:wmo:42047:1,2009-07-18T14:30:00Z,27.8966,-93.5973,29.8,11144222 
TABS,ioos:station:wmo:42047:1,2009-07-18T15:00:00Z,27.8966,-93.5973,30.1,11144222 
TABS,ioos:station:wmo:42047:1,2009-07-18T15:30:00Z,27.8966,-93.5973,30.8,11144222 
TABS,ioos:station:wmo:42047:1,2009-07-18T16:00:00Z,27.8966,-93.5973,31.8,11144222 
TABS,ioos:station:wmo:42047:1,2009-07-18T16:30:00Z,27.8966,-93.5973,32.6,11144222 
TABS,ioos:station:wmo:42047:1,2009-07-18T17:00:00Z,27.8966,-93.5973,33.2,11144222 
TABS,ioos:station:wmo:42047:1,2009-07-18T17:30:00Z,27.8966,-93.5973,33.4,11144222 
TABS,ioos:station:wmo:42047:1,2009-07-18T18:00:00Z,27.8966,-93.5973,33.1,11144222 
TABS,ioos:station:wmo:42047:1,2009-07-18T18:30:00Z,27.8966,-93.5973,33.4,11144222 
TABS,ioos:station:wmo:42047:1,2009-07-18T19:00:00Z,27.8966,-93.5973,33.4,11144222 
TABS,ioos:station:wmo:42047:1,2009-07-18T19:30:00Z,27.8966,-93.5973,34.6,11144222 
TABS,ioos:station:wmo:42047:1,2009-07-18T20:00:00Z,27.8966,-93.5973,36.2,11144222 
TABS,ioos:station:wmo:42047:1,2009-07-18T20:30:00Z,27.8966,-93.5973,35.2,11144222 
TABS,ioos:station:wmo:42047:1,2009-07-18T21:00:00Z,27.8966,-93.5973,35.9,11144222 
TABS,ioos:station:wmo:42047:1,2009-07-18T21:30:00Z,27.8966,-93.5973,32.8,11144222 
TABS,ioos:station:wmo:42047:1,2009-07-18T22:00:00Z,27.8966,-93.5973,33.5,11144222 
TABS,ioos:station:wmo:42047:1,2009-07-18T22:30:00Z,27.8966,-93.5973,35.0,11144222 
TABS,ioos:station:wmo:42047:1,2009-07-18T23:00:00Z,27.8966,-93.5973,35.0,11144222 
TABS,ioos:station:wmo:42047:1,2009-07-18T23:30:00Z,27.8966,-93.5973,30.9,11144222 
TABS,ioos:station:wmo:42047:1,2009-07-19T00:00:00Z,27.8966,-93.5973,29.9,11144222 
TABS,ioos:station:wmo:42047:1,2009-07-19T00:30:00Z,27.8966,-93.5973,29.5,11144222 
TABS,ioos:station:wmo:42047:1,2009-07-19T01:00:00Z,27.8966,-93.5973,29.3,11144222 
TABS,ioos:station:wmo:42047:1,2009-07-19T01:30:00Z,27.8966,-93.5973,26.3,11144222 
TABS,ioos:station:wmo:42047:1,2009-07-19T02:00:00Z,27.8966,-93.5973,25.8,11144222 
TABS,ioos:station:wmo:42047:1,2009-07-19T02:30:00Z,27.8966,-93.5973,25.3,11144222 
TABS,ioos:station:wmo:42047:1,2009-07-19T03:00:00Z,27.8966,-93.5973,25.1,11144222 
TABS,ioos:station:wmo:42047:1,2009-07-19T03:30:00Z,27.8966,-93.5973,24.3,11144222 
TABS,ioos:station:wmo:42047:1,2009-07-19T04:00:00Z,27.8966,-93.5973,24.2,11144222 
TABS,ioos:station:wmo:42047:1,2009-07-19T04:30:00Z,27.8966,-93.5973,23.9,11144222 
TABS,ioos:station:wmo:42047:1,2009-07-19T05:00:00Z,27.8966,-93.5973,23.8,11144222 
TABS,ioos:station:wmo:42047:1,2009-07-19T05:30:00Z,27.8966,-93.5973,23.4,11144222 
TABS,ioos:station:wmo:42047:1,2009-07-19T06:00:00Z,27.8966,-93.5973,23.1,11144222 
TABS,ioos:station:wmo:42047:1,2009-07-19T06:30:00Z,27.8966,-93.5973,22.9,11144222 
TABS,ioos:station:wmo:42047:1,2009-07-19T07:00:00Z,27.8966,-93.5973,22.8,11144222 
TABS,ioos:station:wmo:42047:1,2009-07-19T07:30:00Z,27.8966,-93.5973,22.2,11144222 
TABS,ioos:station:wmo:42047:1,2009-07-19T08:00:00Z,27.8966,-93.5973,22.0,11144222 
TABS,ioos:station:wmo:42047:1,2009-07-19T08:30:00Z,27.8966,-93.5973,21.6,11144222 
TABS,ioos:station:wmo:42047:1,2009-07-19T09:00:00Z,27.8966,-93.5973,21.7,11144222 
TABS,ioos:station:wmo:42047:1,2009-07-19T09:30:00Z,27.8966,-93.5973,21.6,11144222 
TABS,ioos:station:wmo:42047:1,2009-07-19T10:00:00Z,27.8966,-93.5973,21.5,11144222 
TABS,ioos:station:wmo:42047:1,2009-07-19T10:30:00Z,27.8966,-93.5973,21.6,11144222 
TABS,ioos:station:wmo:42047:1,2009-07-19T11:00:00Z,27.8966,-93.5973,21.5,11144222 
TABS,ioos:station:wmo:42047:1,2009-07-19T11:30:00Z,27.8966,-93.5973,21.5,11144222 
TABS,ioos:station:wmo:42047:1,2009-07-19T12:00:00Z,27.8966,-93.5973,21.6,11144222 
TABS,ioos:station:wmo:42047:1,2009-07-19T12:30:00Z,27.8966,-93.5973,21.9,11144222 
TABS,ioos:station:wmo:42047:1,2009-07-19T13:00:00Z,27.8966,-93.5973,22.6,11144222 
TABS,ioos:station:wmo:42047:1,2009-07-19T13:30:00Z,27.8966,-93.5973,23.6,11144222 
TABS,ioos:station:wmo:42047:1,2009-07-19T14:00:00Z,27.8966,-93.5973,25.5,11144222 
TABS,ioos:station:wmo:42047:1,2009-07-19T14:30:00Z,27.8966,-93.5973,27.2,11144222 
TABS,ioos:station:wmo:42047:1,2009-07-19T15:00:00Z,27.8966,-93.5973,28.0,11144222 
TABS,ioos:station:wmo:42047:1,2009-07-19T15:30:00Z,27.8966,-93.5973,28.4,11144222 
TABS,ioos:station:wmo:42047:1,2009-07-19T16:00:00Z,27.8966,-93.5973,29.5,11144222 
TABS,ioos:station:wmo:42047:1,2009-07-19T16:30:00Z,27.8966,-93.5973,30.8,11144222 
TABS,ioos:station:wmo:42047:1,2009-07-19T17:00:00Z,27.8966,-93.5973,30.5,11144222 
TABS,ioos:station:wmo:42047:1,2009-07-19T17:30:00Z,27.8966,-93.5973,32.0,11144222 
TABS,ioos:station:wmo:42047:1,2009-07-19T18:00:00Z,27.8966,-93.5973,33.2,11144222 
TABS,ioos:station:wmo:42047:1,2009-07-19T18:30:00Z,27.8966,-93.5973,34.4,11144222 
TABS,ioos:station:wmo:42047:1,2009-07-19T19:00:00Z,27.8966,-93.5973,33.2,11144222 
TABS,ioos:station:wmo:42047:1,2009-07-19T19:30:00Z,27.8966,-93.5973,34.2,11144222 
TABS,ioos:station:wmo:42047:1,2009-07-19T20:00:00Z,27.8966,-93.5973,35.4,11144222 
TABS,ioos:station:wmo:42047:1,2009-07-19T20:30:00Z,27.8966,-93.5973,35.7,11144222 
TABS,ioos:station:wmo:42047:1,2009-07-19T21:00:00Z,27.8966,-93.5973,36.0,11144222 
TABS,ioos:station:wmo:42047:1,2009-07-19T21:30:00Z,27.8966,-93.5973,35.8,11144222 
TABS,ioos:station:wmo:42047:1,2009-07-19T22:00:00Z,27.8966,-93.5973,37.1,11144222 
TABS,ioos:station:wmo:42047:1,2009-07-19T22:30:00Z,27.8966,-93.5973,36.3,11144222 
TABS,ioos:station:wmo:42047:1,2009-07-19T23:00:00Z,27.8966,-93.5973,35.3,11144222 
TABS,ioos:station:wmo:42047:1,2009-07-19T23:30:00Z,27.8966,-93.5973,34.6,11144222 
TABS,ioos:station:wmo:42047:1,2009-07-20T00:00:00Z,27.8966,-93.5973,20.7,11144222 
TABS,ioos:station:wmo:42047:1,2009-07-20T00:30:00Z,27.8966,-93.5973,22.5,11144222 
TABS,ioos:station:wmo:42047:1,2009-07-20T01:00:00Z,27.8966,-93.5973,24.4,11144222 
TABS,ioos:station:wmo:42047:1,2009-07-20T01:30:00Z,27.8966,-93.5973,24.3,11144222 
TABS,ioos:station:wmo:42047:1,2009-07-20T02:00:00Z,27.8966,-93.5973,23.4,11144222 
TABS,ioos:station:wmo:42047:1,2009-07-20T02:30:00Z,27.8966,-93.5973,23.8,11144222 
TABS,ioos:station:wmo:42047:1,2009-07-20T03:00:00Z,27.8966,-93.5973,24.2,11144222 
TABS,ioos:station:wmo:42047:1,2009-07-20T03:30:00Z,27.8966,-93.5973,24.0,11144222 
TABS,ioos:station:wmo:42047:1,2009-07-20T04:00:00Z,27.8966,-93.5973,24.2,11144222 
TABS,ioos:station:wmo:42047:1,2009-07-20T04:30:00Z,27.8966,-93.5973,24.0,11144222 
TABS,ioos:station:wmo:42047:1,2009-07-20T05:00:00Z,27.8966,-93.5973,24.2,11144222 
TABS,ioos:station:wmo:42047:1,2009-07-20T05:30:00Z,27.8966,-93.5973,24.0,11144222 
TABS,ioos:station:wmo:42047:1,2009-07-20T06:00:00Z,27.8966,-93.5973,24.3,11144222 
TABS,ioos:station:wmo:42047:1,2009-07-20T06:30:00Z,27.8966,-93.5973,24.2,11144222 
TABS,ioos:station:wmo:42047:1,2009-07-20T07:00:00Z,27.8966,-93.5973,24.3,11144222 
TABS,ioos:station:wmo:42047:1,2009-07-20T07:30:00Z,27.8966,-93.5973,23.9,11144222 
TABS,ioos:station:wmo:42047:1,2009-07-20T08:00:00Z,27.8966,-93.5973,24.2,11144222 
TABS,ioos:station:wmo:42047:1,2009-07-20T08:30:00Z,27.8966,-93.5973,24.2,11144222 
TABS,ioos:station:wmo:42047:1,2009-07-20T09:00:00Z,27.8966,-93.5973,24.3,11144222 
TABS,ioos:station:wmo:42047:1,2009-07-20T09:30:00Z,27.8966,-93.5973,24.0,11144222 
TABS,ioos:station:wmo:42047:1,2009-07-20T10:00:00Z,27.8966,-93.5973,24.3,11144222 
TABS,ioos:station:wmo:42047:1,2009-07-20T10:30:00Z,27.8966,-93.5973,24.3,11144222 
TABS,ioos:station:wmo:42047:1,2009-07-20T11:00:00Z,27.8966,-93.5973,24.3,11144222 
TABS,ioos:station:wmo:42047:1,2009-07-20T11:30:00Z,27.8966,-93.5973,24.1,11144222 
TABS,ioos:station:wmo:42047:1,2009-07-20T12:00:00Z,27.8966,-93.5973,24.2,11144222 
TABS,ioos:station:wmo:42047:1,2009-07-20T12:30:00Z,27.8966,-93.5973,24.4,11144222 
TABS,ioos:station:wmo:42047:1,2009-07-20T13:00:00Z,27.8966,-93.5973,24.5,11144222 
TABS,ioos:station:wmo:42047:1,2009-07-20T13:30:00Z,27.8966,-93.5973,25.0,11144222 
TABS,ioos:station:wmo:42047:1,2009-07-20T14:00:00Z,27.8966,-93.5973,25.5,11144222 
TABS,ioos:station:wmo:42047:1,2009-07-20T14:30:00Z,27.8966,-93.5973,26.3,11144222 
TABS,ioos:station:wmo:42047:1,2009-07-20T15:00:00Z,27.8966,-93.5973,28.1,11144222 
TABS,ioos:station:wmo:42047:1,2009-07-20T15:30:00Z,27.8966,-93.5973,29.2,11144222 
TABS,ioos:station:wmo:42047:1,2009-07-20T16:00:00Z,27.8966,-93.5973,30.2,11144222 
TABS,ioos:station:wmo:42047:1,2009-07-20T16:30:00Z,27.8966,-93.5973,31.2,11144222 
TABS,ioos:station:wmo:42047:1,2009-07-20T17:00:00Z,27.8966,-93.5973,32.0,11144222 
TABS,ioos:station:wmo:42047:1,2009-07-20T17:30:00Z,27.8966,-93.5973,33.1,11144222 
TABS,ioos:station:wmo:42047:1,2009-07-20T18:00:00Z,27.8966,-93.5973,34.1,11144222 
TABS,ioos:station:wmo:42047:1,2009-07-20T18:30:00Z,27.8966,-93.5973,33.0,11144222 
TABS,ioos:station:wmo:42047:1,2009-07-20T19:00:00Z,27.8966,-93.5973,34.1,11144222 
TABS,ioos:station:wmo:42047:1,2009-07-20T19:30:00Z,27.8966,-93.5973,35.1,11144222 
TABS,ioos:station:wmo:42047:1,2009-07-20T20:00:00Z,27.8966,-93.5973,34.4,11144222 
TABS,ioos:station:wmo:42047:1,2009-07-20T20:30:00Z,27.8966,-93.5973,33.3,11144222 
TABS,ioos:station:wmo:42047:1,2009-07-20T21:00:00Z,27.8966,-93.5973,32.7,11144222 
TABS,ioos:station:wmo:42047:1,2009-07-20T21:30:00Z,27.8966,-93.5973,32.7,11144222 
TABS,ioos:station:wmo:42047:1,2009-07-20T22:00:00Z,27.8966,-93.5973,34.3,11144222 
TABS,ioos:station:wmo:42047:1,2009-07-20T22:30:00Z,27.8966,-93.5973,34.5,11144222 
TABS,ioos:station:wmo:42047:1,2009-07-20T23:00:00Z,27.8966,-93.5973,33.4,11144222 
TABS,ioos:station:wmo:42047:1,2009-07-20T23:30:00Z,27.8966,-93.5973,32.9,11144222 
TABS,ioos:station:wmo:42047:1,2009-07-21T00:00:00Z,27.8966,-93.5973,30.4,11144222 
TABS,ioos:station:wmo:42047:1,2009-07-21T00:30:00Z,27.8966,-93.5973,28.4,11144222 
TABS,ioos:station:wmo:42047:1,2009-07-21T01:00:00Z,27.8966,-93.5973,24.9,11144222 
TABS,ioos:station:wmo:42047:1,2009-07-21T01:30:00Z,27.8966,-93.5973,24.6,11144222 
TABS,ioos:station:wmo:42047:1,2009-07-21T02:00:00Z,27.8966,-93.5973,24.5,11144222 
TABS,ioos:station:wmo:42047:1,2009-07-21T02:30:00Z,27.8966,-93.5973,24.3,11144222 
TABS,ioos:station:wmo:42047:1,2009-07-21T03:00:00Z,27.8966,-93.5973,25.2,11144222 
TABS,ioos:station:wmo:42047:1,2009-07-21T03:30:00Z,27.8966,-93.5973,25.2,11144222 
TABS,ioos:station:wmo:42047:1,2009-07-21T04:00:00Z,27.8966,-93.5973,24.9,11144222 
TABS,ioos:station:wmo:42047:1,2009-07-21T04:30:00Z,27.8966,-93.5973,24.8,11144222 
TABS,ioos:station:wmo:42047:1,2009-07-21T05:00:00Z,27.8966,-93.5973,24.7,11144222 
TABS,ioos:station:wmo:42047:1,2009-07-21T05:30:00Z,27.8966,-93.5973,24.2,11144222 
TABS,ioos:station:wmo:42047:1,2009-07-21T06:00:00Z,27.8966,-93.5973,24.2,11144222 
TABS,ioos:station:wmo:42047:1,2009-07-21T06:30:00Z,27.8966,-93.5973,24.0,11144222 
TABS,ioos:station:wmo:42047:1,2009-07-21T07:00:00Z,27.8966,-93.5973,24.5,11144222 
TABS,ioos:station:wmo:42047:1,2009-07-21T07:30:00Z,27.8966,-93.5973,24.3,11144222 
TABS,ioos:station:wmo:42047:1,2009-07-21T08:00:00Z,27.8966,-93.5973,24.4,11144222 
TABS,ioos:station:wmo:42047:1,2009-07-21T08:30:00Z,27.8966,-93.5973,24.2,11144222 
TABS,ioos:station:wmo:42047:1,2009-07-21T09:00:00Z,27.8966,-93.5973,24.6,11144222 
TABS,ioos:station:wmo:42047:1,2009-07-21T09:30:00Z,27.8966,-93.5973,24.6,11144222 
TABS,ioos:station:wmo:42047:1,2009-07-21T10:00:00Z,27.8966,-93.5973,24.7,11144222 
TABS,ioos:station:wmo:42047:1,2009-07-21T10:30:00Z,27.8966,-93.5973,24.7,11144222 
TABS,ioos:station:wmo:42047:1,2009-07-21T11:00:00Z,27.8966,-93.5973,24.7,11144222 
TABS,ioos:station:wmo:42047:1,2009-07-21T11:30:00Z,27.8966,-93.5973,24.6,11144222 
TABS,ioos:station:wmo:42047:1,2009-07-21T12:00:00Z,27.8966,-93.5973,24.5,11144222 
TABS,ioos:station:wmo:42047:1,2009-07-21T12:30:00Z,27.8966,-93.5973,24.9,11144222 
TABS,ioos:station:wmo:42047:1,2009-07-21T13:00:00Z,27.8966,-93.5973,25.4,11144222 
TABS,ioos:station:wmo:42047:1,2009-07-21T13:30:00Z,27.8966,-93.5973,26.7,11144222 
TABS,ioos:station:wmo:42047:1,2009-07-21T14:00:00Z,27.8966,-93.5973,27.5,11144222 